Weather History for KFNT - November, 2011

Change the Weather History Date:

Saturday, November 19, 2011

  Actual Average Record
Temperature  
Mean Temperature 46 °F 38 °F  
Max Temperature 54 °F 45 °F 70 °F (1953)
Min Temperature 38 °F 30 °F 13 °F (1986)
Degree Days  
Heating Degree Days 19 27  
Month to date heating degree days 370 455  
Since 1 July heating degree days 946 1151  
Cooling Degree Days 0 0  
Month to date cooling degree days 0 0  
Year to date cooling degree days 819 531  
Moisture  
Dew Point 32 °F    
Average Humidity 57    
Maximum Humidity 76    
Minimum Humidity 37    
Precipitation  
Precipitation T in 0.09 in 1.20 in (1921)
Month to date precipitation 0.63 1.74  
Year to date precipitation 36.69 28.52  
Snow  
Snow 0.00 in 0.10 in 3.00 in (1969)
Month to date snowfall T 0.9  
Since 1 July snowfall T 1.3  
Since 1 September snowfall T 1.3  
Snow Depth 0.00 in    
Sea Level Pressure  
Sea Level Pressure 29.92 in    
Wind  
Wind Speed 13 mph (SSW)    
Max Wind Speed 21 mph    
Max Gust Speed 31 mph    
Visibility 10 miles    
Events Rain    
T = Trace of Precipitation, MM = Missing Value Source: NWS Daily Summary

Daily Weather History Graph

Daily Weather History Graph

Search for Another Location

Airport or City:

Trip Planner

Search our weather history database for the weather conditions in past years. The results will help you decide how hot, cold, wet, or windy it might be!

Date:

Astronomy

Nov. 19, 2011 Rise Set
Actual Time 7:31 AM EST 5:08 PM EST
Civil Twilight 7:01 AM EST 5:39 PM EST
Nautical Twilight 6:26 AM EST 6:13 PM EST
Astronomical Twilight 5:52 AM EST 6:47 PM EST
Moon 12:42 AM EST (11/19) 1:33 PM EST (11/19)
Length of Visible Light 10h 38m
Length of Day
9h 36m
Last Quarter, 38% of the Moon is Illuminated
Nov 19
Last Quarter
Nov 25
New
Dec 2
First Quarter
Dec 10
Full
Dec 17
Last Quarter

Hourly Weather History & Observations

Time (EST) Temp. Windchill Dew Point Humidity Pressure Visibility Wind Dir Wind Speed Gust Speed Precip Events Conditions
12:53 AM 37.9 °F 34.4 °F 19.9 °F 48% 30.02 in 10.0 mi SSW 4.6 mph - N/A   Scattered Clouds
1:53 AM 41.0 °F 34.7 °F 21.0 °F 45% 30.01 in 10.0 mi SSW 10.4 mph - N/A   Overcast
2:53 AM 43.0 °F 36.4 °F 19.9 °F 40% 30.01 in 10.0 mi SSW 12.7 mph - N/A   Overcast
3:53 AM 44.1 °F 37.1 °F 19.9 °F 38% 30.01 in 10.0 mi SSW 15.0 mph 23.0 mph N/A   Overcast
4:53 AM 45.0 °F 38.9 °F 19.9 °F 37% 30.01 in 10.0 mi SSW 12.7 mph - N/A   Overcast
5:53 AM 42.8 °F 36.2 °F 21.2 °F 42% 29.99 in 10.0 mi SSW 12.7 mph - N/A   Clear
6:53 AM 41.0 °F 35.2 °F 21.2 °F 45% 29.99 in 10.0 mi SSW 9.2 mph 17.3 mph N/A   Clear
7:53 AM 41.0 °F 34.3 °F 24.1 °F 51% 30.01 in 10.0 mi SSW 11.5 mph - N/A   Clear
8:53 AM 43.0 °F 37.2 °F 26.1 °F 51% 30.01 in 10.0 mi SSW 10.4 mph - N/A   Scattered Clouds
9:53 AM 42.8 °F 37.0 °F 26.6 °F 53% 29.99 in 10.0 mi SSW 10.4 mph 20.7 mph N/A   Overcast
10:53 AM 46.0 °F 40.6 °F 28.9 °F 51% 30.00 in 10.0 mi SSW 11.5 mph 20.7 mph N/A   Overcast
11:53 AM 46.9 °F - 30.0 °F 52% 29.99 in 10.0 mi SSW 9.2 mph 24.2 mph N/A   Overcast
12:53 PM 46.9 °F - 30.0 °F 52% 29.96 in 10.0 mi SSW 12.7 mph 21.9 mph N/A   Overcast
1:53 PM 48.0 °F - 30.9 °F 52% 29.94 in 10.0 mi SSW 13.8 mph 21.9 mph N/A   Overcast
2:53 PM 50.0 °F - 32.0 °F 50% 29.89 in 10.0 mi South 16.1 mph 25.3 mph N/A   Overcast
3:53 PM 50.0 °F - 33.8 °F 54% 29.87 in 10.0 mi South 13.8 mph 24.2 mph N/A   Mostly Cloudy
4:43 PM 48.2 °F - 37.4 °F 66% 29.90 in 10.0 mi South 12.7 mph 21.9 mph N/A   Overcast
4:53 PM 48.0 °F - 37.9 °F 68% 29.91 in 10.0 mi SSW 11.5 mph 23.0 mph N/A   Overcast
5:53 PM 46.9 °F - 39.0 °F 74% 29.89 in 10.0 mi South 15.0 mph 21.9 mph N/A   Overcast
6:53 PM 48.0 °F - 39.0 °F 71% 29.88 in 10.0 mi South 13.8 mph 21.9 mph N/A   Overcast
7:14 PM 48.2 °F - 39.2 °F 71% 29.86 in 10.0 mi SSW 16.1 mph 25.3 mph N/A   Overcast
7:53 PM 48.2 °F - 39.2 °F 71% 29.84 in 10.0 mi SSW 12.7 mph 27.6 mph N/A   Overcast
8:44 PM 50.0 °F - 39.2 °F 66% 29.82 in 10.0 mi SSW 13.8 mph 23.0 mph N/A   Overcast
8:53 PM 48.9 °F - 39.9 °F 71% 29.83 in 10.0 mi SSW 12.7 mph 20.7 mph N/A   Mostly Cloudy
9:53 PM 51.1 °F - 42.1 °F 71% 29.81 in 10.0 mi SSW 15.0 mph 25.3 mph N/A   Overcast
10:53 PM 53.1 °F - 44.1 °F 71% 29.80 in 10.0 mi SSW 17.3 mph 25.3 mph N/A   Overcast
11:38 PM 53.6 °F - 44.6 °F 72% 29.79 in 9.0 mi SW 15.0 mph 25.3 mph 0.00 in Rain Light Rain
11:53 PM 53.6 °F - 44.6 °F 72% 29.78 in 10.0 mi SW 16.1 mph 24.2 mph N/A   Overcast